Regional Weather Roundup
Issued by NWS

Home | Current Version | Previous Version | Graphics & Text | Print | Product List | Glossary On
Versions: 1 2 3 4 5 6 7 8 9 10 11 12 13 14 15 16 17 18 19 20 21 22 23 24 25 26 27
000
ASUS45 KCYS 232110
RWRWY

WYOMING REGIONAL WEATHER ROUNDUP
NATIONAL WEATHER SERVICE CHEYENNE WY
300 PM MDT MON APR 23 2018

NOTE:  "FAIR" INDICATES FEW OR NO CLOUDS BELOW 12,000 FEET
WITH NO SIGNIFICANT WEATHER AND/OR OBSTRUCTIONS TO VISIBILITY.

WYZ001-232200-
YELLOWSTONE NATIONAL PARK

CITY           SKY/WX    TMP DP  RH WIND       PRES   REMARKS
LK YELLOWSTONE   N/A     34  28  79 VRB3      30.25R
W YELLOWSTONE  NOT AVBL

$$
WYZ002>013-054>058-071-098>099-232200-
NORTHERN WYOMING

CITY           SKY/WX    TMP DP  RH WIND       PRES   REMARKS
JACKSON        FAIR      46  28  49 W8        30.18
CODY           CLOUDY    36  30  79 N26G35    30.32R WCI  24
GREYBULL       CLOUDY    39  36  89 NW24G35   30.24R WCI  28
WORLAND        CLOUDY    39  35  86 NW20G28   30.26R WCI  29
SHERIDAN       LGT SNOW  35  33  92 NW25G32   30.30R FOG     WCI  23
BUFFALO        CLOUDY    35  31  85 N29G41    30.21R WCI  22
GILLETTE       LGT SNOW  34  33  96 NW25G35   30.16R FOG     WCI  21
HULETT         RAIN      55  43  62 E14G20    30.02S
NEWCASTLE      FAIR      61  34  36 SE18      30.00S

$$
WYZ014>020-022>026-101>103-232200-
CENTRAL WYOMING

CITY           SKY/WX    TMP DP  RH WIND       PRES   REMARKS
BIG PINEY      PTSUNNY   52  17  25 NW14      30.16R
PINEDALE       CLOUDY    48  21  34 W16G28    30.17S
DUBOIS         MOCLDY    45  21  39 W12G21    30.14R
LANDER         CLOUDY    44  32  62 NE13      30.17R
RIVERTON       CLOUDY    42  30  62 N30G36    30.18R
CASPER         PTSUNNY   52  39  61 N10       30.12R
DOUGLAS        PTSUNNY   53  37  54 N18G28    30.08R

$$
WYZ021-027>030-104>119-232200-
SOUTHERN WYOMING

CITY           SKY/WX    TMP DP  RH WIND       PRES   REMARKS
EVANSTON       FAIR      55  21  26 W23G31    30.18R
KEMMERER       FAIR      52  19  28 W18G31    30.18R
FORT BRIDGER   FAIR      58  19  21 W18G37    30.18S
ROCK SPRINGS   FAIR      59  17  19 W24G37    30.11S
DIXON          FAIR      62  31  31 W14G20    30.11F
RAWLINS        CLOUDY    55  27  34 W15G32    30.11R
SARATOGA       MOCLDY    61  28  29 W16G32    30.10F
LARAMIE        FAIR      62  33  33 NW21G28   30.05S
CHEYENNE       FAIR      62  35  36 SE9       30.04F
TORRINGTON     FAIR      69  41  36 SE8       29.97S
PINE BLUFFS    CLOUDY    63  32  31 SW8       30.06R

$$




USA.gov is the U.S. government's official web portal to all federal, state and local government web resources and services.